Regional Weather Roundup
Issued by NWS New Orleans/Baton Rouge, LA

Home | Current Version | Previous Version | Text Only | Print | Product List | Glossary On
Versions: 1 2 3 4 5 6 7 8 9 10 11 12 13 14 15 16 17 18 19 20 21 22 23 24 25 26 27 28 29 30 31 32 33 34 35 36 37 38 39 40 41 42 43 44 45 46 47 48 49 50
078
ASUS44 KLIX 192301
RWRLIX
NEW ORLEANS REGIONAL WEATHER ROUNDUP
NATIONAL WEATHER SERVICE NEW ORLEANS LA
600 PM CDT TUE AUG 19 2014

NOTE: "FAIR" INDICATES FEW OR NO CLOUDS BELOW 12,000 FEET WITH NO
      SIGNIFICANT WEATHER AND/OR OBSTRUCTIONS TO VISIBILITY.
      SKY/WX - SKY CONDITION AND SIGNIFICANT WEATHER.
      TMP - AIR TEMPERATURE.     DP    - DEWPOINT TEMPERATURE.
      RH  - RELATIVE HUMIDITY.   PRES  - PRESSURE.
      HI  - HEAT INDEX.          WCI   - WIND CHILL INDEX.

*  THESE STATIONS ARE NOT NWS OR FAA STATIONS AND ARE NOT UNDER
   NWS QUALITY CONTROL.

LAZ038-040-048-061>063-065>067-069-200000-
SOUTHEAST LOUISIANA

CITY           SKY/WX    TMP DP  RH WIND       PRES   REMARKS
N.O. AUDUBON     N/A     87  75  67 MISG        N/A  HX  96
N.O. INTL ARPT CLOUDY    85  74  69 SW5       29.96S
N.O. LAKEFRONT CLOUDY    85  73  67 S7        29.96S
N.O. DOWNTOWN*   N/A     90  70  51 CALM      29.96F HX  95
SLIDELL        PTSUNNY   87  74  64 S6        29.94F HX  95
BATON ROUGE    PTSUNNY   83  72  69 W15       29.95R
BOOTHVILLE     SUNNY     87  76  69 SW9       29.98R HX  97
BELLE CHASSE   CLOUDY    79  74  84 CALM      29.95F
BOGALUSA*        N/A     88  73  61 SW8       29.95S HX  96
GALLIANO*      NOT AVBL
NEW ROADS*       N/A     79  73  81 CALM      29.96R
GONZALES*        N/A     85  77  76 S5        29.95R HX  95
HAMMOND*       NOT AVBL
HOUMA*         MOSUNNY   88  72  58 SW9       29.97R
PORT FOURCHON* PTCLDY    90  75  62 SW7       29.99R HX 100

$$

MSZ070-080>082-200000-
SOUTHERN MISSISSIPPI

CITY           SKY/WX    TMP DP  RH WIND       PRES   REMARKS
MCCOMB         SUNNY     90  69  50 W9        29.94F
GULFPORT       SUNNY     89  75  63 S8G17     29.94R HX  99
BILOXI         SUNNY     89  76  66 SW16      29.94S HX 100
PASCAGOULA     SUNNY     87  76  69 S7        29.95R HX  97
STENNIS ARPT*  MOSUNNY  N/A N/A N/A SW9       29.95R

$$

COASTAL OBSERVATIONS
LAKE AND NEARSHORE STATIONS

STATION/POSITION TIME  TEMP    WIND        PRES    WAVE
                       AIR SEA DIR/SP/G            HT/PER
                 (UTC) (F)     (DEG/KT/KT) (MB)    (FT/S)
PASCAGOULA       2200   87     210/ 13/ 15 1014.0
WAVELAND YACHT   2200   89     200/  9/ 12 1013.6
GRAND ISLE       2200   87 88  220/  7/ 11 1015.3
SOUTHWEST PASS   2200   89 90  220/  6/  9 1015.3
NEW CANAL        2200   86 85  180/  5/  7 1015.1
SHELL BEACH      2200   82 82  310/ 15/ 24 1014.7

OFFSHORE STATIONS

STATION/POSITION TIME  TEMP    WIND        PRES    WAVE
                       AIR SEA DIR/SP/G            HT/PER
                 (UTC) (F)     (DEG/KT/KT) (MB)    (FT/S)
64 S DAUPHIN ISL 2245   86 90  250/  8/ 10 1015.2

$$




USA.gov is the U.S. government's official web portal to all federal, state and local government web resources and services.